Location: Bosdarros
(43.2167°N, 0.3667°W)
Time: 07:54:35
(UTC+00:00)

Cosmos 2180 Rocket - Pass Details

Date: 22 April 2021
Orbit: 953 x 1005 km, 82.9° (Epoch: 07 May)

Event Time Altitude Azimuth Distance (km) Brightness Sun altitude
Rises 20:19:36 0° 183° (S) 3,638 7.2 -15.0°
Reaches altitude 10° 20:22:06 10° 182° (S) 2,690 6.5 -15.4°
Maximum altitude 20:28:15 83° 96° (E) 969 4.4 -16.3°
Drops below altitude 10° 20:34:24 10° 9° (N) 2,690 7.2 -17.2°
Sets 20:36:54 0° 9° (N) 3,640 7.9 -17.6°
